Weather History for Bradshaw AFB, HI

Change the Weather History Date:

Thursday, February 20, 2014

  Actual Average Record
Temperature  
Mean Temperature 56 °F -  
Max Temperature 67 °F 64 °F 75 °F (2004)
Min Temperature 44 °F 42 °F 28 °F (1998)
Degree Days  
Heating Degree Days 10    
Growing Degree Days 6 (Base 50)    
Moisture  
Dew Point 47 °F    
Average Humidity 78    
Maximum Humidity 100    
Minimum Humidity 27    
Precipitation  
Precipitation 0.01 in - - ()
Sea Level Pressure  
Sea Level Pressure 30.02 in    
Wind  
Wind Speed 5 mph (WSW)    
Max Wind Speed 16 mph    
Max Gust Speed 23 mph    
Visibility 9 miles    
Events Fog , Rain    
Averages and records for this station are not official NWS values.
T = Trace of Precipitation, MM = Missing Value Source: NWS Daily Summary

Daily Weather History Graph

Daily Weather History Graph

Search for Another Location

Airport:

Trip Planner

Search our weather history database for the weather conditions in past years. The results will help you decide how hot, cold, wet, or windy it might be!

Date:

Astronomy

Feb. 20, 2014 Rise Set
Actual Time 6:47 AM HST 6:24 PM HST
Civil Twilight 6:25 AM HST 6:46 PM HST
Nautical Twilight 5:59 AM HST 7:12 PM HST
Astronomical Twilight 5:34 AM HST 7:37 PM HST
Moon 11:37 PM HST (2/20) 10:26 AM HST (2/20)
Length of Visible Light 12h 20m
Length of Day
11h 36m
Waning Gibbous, 69% of the Moon is Illuminated
Feb 20
Waning Gibbous
Feb 22
Last Quarter
Feb 28
New
Mar 8
First Quarter
Mar 16
Full

Hourly Weather History & Observations

Time (HST) Temp. Windchill Dew Point Humidity Pressure Visibility Wind Dir Wind Speed Gust Speed Precip Events Conditions
12:56 AM 47.5 °F - 42.4 °F 83% 30.29 in 12.0 mi ESE 4.6 mph - N/A   Clear
1:56 AM 46.0 °F 43.1 °F 40.6 °F 81% 29.97 in 12.0 mi ESE 5.8 mph - N/A   Clear
2:56 AM 45.7 °F 42.7 °F 39.6 °F 79% 29.95 in 12.0 mi ESE 5.8 mph - N/A   Clear
3:56 AM 47.3 °F - 37.4 °F 68% 29.95 in 12.0 mi ESE 6.9 mph - N/A   Clear
4:56 AM 46.6 °F - 37.4 °F 70% 29.96 in 12.0 mi ESE 6.9 mph - N/A   Clear
5:56 AM 46.0 °F 43.9 °F 37.2 °F 71% 29.96 in 12.0 mi ESE 4.6 mph - N/A   Clear
6:56 AM 44.4 °F 42.0 °F 36.1 °F 73% 29.99 in 12.0 mi ESE 4.6 mph - N/A   Clear
7:56 AM 53.1 °F - 39.6 °F 60% 29.97 in 12.0 mi ESE 3.5 mph - N/A   Clear
8:56 AM 61.2 °F - 37.6 °F 42% 29.97 in 12.0 mi ESE 3.5 mph - N/A   Clear
9:56 AM 64.2 °F - 28.9 °F 27% 29.96 in 12.0 mi SSW 2.3 mph - N/A   Clear
10:56 AM 66.2 °F - 35.1 °F 32% 29.95 in 12.0 mi WNW 2.3 mph - N/A   Clear
11:56 AM 66.9 °F - 51.1 °F 57% 29.91 in 12.0 mi West 12.7 mph 17.3 mph N/A   Partly Cloudy
12:56 PM 67.1 °F - 56.7 °F 69% 29.90 in 12.0 mi WSW 12.7 mph 20.7 mph N/A   Partly Cloudy
1:56 PM 67.3 °F - 55.4 °F 66% 29.87 in 12.0 mi WSW 16.1 mph 23.0 mph N/A   Scattered Clouds
2:56 PM 64.2 °F - 54.5 °F 71% 29.88 in 12.0 mi WSW 11.5 mph 21.9 mph N/A   Mostly Cloudy
3:56 PM 64.0 °F - 54.5 °F 71% 29.88 in 12.0 mi West 12.7 mph 18.4 mph N/A   Mostly Cloudy
4:56 PM 59.7 °F - 54.3 °F 82% 29.90 in 10.0 mi WSW 9.2 mph - N/A   Mostly Cloudy
5:56 PM 59.7 °F - 52.2 °F 76% 29.92 in 12.0 mi West 4.6 mph - N/A   Scattered Clouds
6:56 PM 57.6 °F - 53.2 °F 85% 29.94 in 8.0 mi Calm Calm - N/A   Mostly Cloudy
7:56 PM 54.9 °F - 50.0 °F 84% 29.94 in 10.0 mi Calm Calm - N/A   Mostly Cloudy
8:06 PM 53.6 °F - 51.8 °F 94% 30.24 in 0.3 mi West 2.3 mph - N/A Fog Fog
8:26 PM 53.6 °F - 53.6 °F 100% 30.25 in 0.1 mi WNW 3.5 mph - N/A Fog Fog
8:28 PM 53.6 °F - 53.6 °F 100% 30.25 in 0.1 mi WNW 3.5 mph - N/A Fog Light Drizzle
8:43 PM 53.6 °F - 53.6 °F 100% 30.25 in 1.0 mi NW 3.5 mph - N/A Fog , Rain Light Rain Showers
8:48 PM 53.6 °F - 53.6 °F 100% 30.25 in 2.2 mi NW 2.3 mph - N/A Rain Light Rain Showers
8:53 PM 53.6 °F - 53.6 °F 100% 30.25 in 4.0 mi NW 1.2 mph - N/A Rain Light Rain Showers
8:54 PM 53.6 °F - 53.6 °F 100% 30.25 in 4.0 mi NW 1.2 mph - N/A   Mostly Cloudy
8:56 PM 53.2 °F - 52.9 °F 99% 29.93 in 5.0 mi NW 1.2 mph - N/A   Mostly Cloudy
9:01 PM 53.6 °F - 53.6 °F 100% 30.25 in 6.0 mi NW 1.2 mph - N/A   Mostly Cloudy
9:56 PM 51.1 °F - 48.9 °F 92% 29.94 in 9.0 mi SSE 4.6 mph - N/A   Mostly Cloudy
10:56 PM 49.6 °F - 46.6 °F 89% 29.91 in 12.0 mi SE 5.8 mph - N/A   Scattered Clouds
11:56 PM 50.0 °F - 44.8 °F 82% 29.91 in 12.0 mi WNW 2.3 mph - N/A   Mostly Cloudy